Location: Czaszyn
(49.4502°N, 22.2178°E)
Time: 23:19:19
(UTC+02:00)

ISS - Visible Passes

Search period start: 25 September 2018 00:00
Search period end: 05 October 2018 00:00
Orbit: 403 x 408 km, 51.6° (Epoch: 26 September)

Date Brightness Start Highest point End Pass type
(mag) Time Alt. Az. Time Alt. Az. Time Alt. Az.
25 Sep -3.3 19:28:28 10° SW 19:31:36 41° SSE 19:33:25 21° E visible
25 Sep -1.4 21:04:45 10° W 21:06:06 22° W 21:06:06 22° W visible
26 Sep -3.9 20:12:48 10° WSW 20:16:07 83° NNW 20:16:23 72° NE visible
27 Sep -3.8 19:20:55 10° WSW 19:24:13 73° SSE 19:26:35 18° ENE visible
27 Sep -1.7 20:57:34 10° W 20:59:16 27° WNW 20:59:16 27° WNW visible
28 Sep -3.5 20:05:33 10° W 20:08:51 62° N 20:09:23 52° NE visible
29 Sep -3.7 19:13:33 10° W 19:16:52 75° NNW 19:19:26 16° ENE visible
29 Sep -1.8 20:50:18 10° WNW 20:52:07 29° WNW 20:52:07 29° WNW visible
30 Sep -3.4 19:58:17 10° W 20:01:34 56° N 20:02:08 47° NE visible
01 Oct -3.4 19:06:16 10° W 19:09:32 59° N 19:12:07 15° ENE visible
01 Oct -1.9 20:42:57 10° WNW 20:44:47 30° WNW 20:44:47 30° WNW visible
02 Oct -3.6 19:50:56 10° WNW 19:54:14 61° N 19:54:46 51° NE visible
03 Oct -3.4 18:58:55 10° WNW 19:02:11 56° N 19:04:44 15° E visible
03 Oct -2.0 20:35:30 10° WNW 20:37:24 32° WNW 20:37:24 32° WNW visible
04 Oct -3.9 19:43:29 10° WNW 19:46:48 79° NNE 19:47:23 57° E visible
